Simultaneous Nadir Overpasses (SNOs) Predictions

Prediction of SNOs between AQUA and NPP Satellite Orbit:

Table of predicted SNOs for the next 14.0 days since TLE Epoch: 8/23/2014
Index Date (AQUA) Time (AQUA) Lat,Lon (AQUA) SZA (AQUA ) Date (NPP) Time (NPP) Lat,Lon (NPP) SZA (NPP ) Distance(km) Time Diff (sec)
1 08/25/2014 17:01:01 46.01, 137.20 116.68 08/25/2014 17:00:23 45.97, 137.29 116.74 8.48 38
2 08/25/2014 17:48:31 -53.07, -52.22 69.98 08/25/2014 17:49:07 -53.07, -52.25 70.02 1.90 36
3 08/28/2014 09:17:27 46.05,-106.90 117.42 08/28/2014 09:17:22 46.04,-106.92 117.44 1.42 5
4 08/28/2014 10:03:38 -57.73, 66.12 73.62 08/28/2014 10:04:45 -57.73, 66.15 73.72 1.38 67
5 08/31/2014 00:44:29 -46.04,-158.67 61.80 08/31/2014 00:43:40 -45.99,-158.50 61.75 13.97 49
6 08/31/2014 01:32:17 51.69, 11.29 112.94 08/31/2014 01:32:43 51.69, 11.30 112.89 0.68 26
7 09/02/2014 17:00:55 -46.03, -42.78 61.01 09/02/2014 17:00:40 -46.00, -42.74 60.97 5.27 15
8 09/02/2014 17:47:31 55.92, 129.26 109.77 09/02/2014 17:48:29 55.93, 129.28 109.67 1.52 58
9 09/05/2014 08:27:51 46.02, -94.52 119.79 09/05/2014 08:26:52 46.00, -94.27 119.81 19.17 59
10 09/05/2014 09:16:19 -49.67, 74.55 63.56 09/05/2014 09:16:36 -49.68, 74.57 63.60 1.73 17




NCC Satellite Simultaneous Nadir Overpasses (SNOs) Prediction Service
